FENGYUN 1C DEB

Satellite information

Favourite Embed

Satellite Type and Status

DEBRISIN ORBIT

Key statistics

Satellite FENGYUN 1C DEB at a glance.

Uptime

9550

Days in orbit

Revolutions

≈ 14.3

Per day

Orbit

SSO

Sun Synchronous Orbit

Inclination

99.7

Latest

Satellite identification and parameters

Extended collection of information and parameters for FENGYUN 1C DEB.

Object identification

Identified? True

Debris? True

Object name: FENGYUN 1C DEB

International designator: 1999-025BAZ

Object number (NORAD): 30959

Object ID (CCSDS): 30959

Country: PEOPLES REPUBLIC OF CHINA (PRC)

Current information (Y/N): Y

RCS size: SMALL

Orbital parameters

Period: 100.374 minutes

Inclination: 99.6869 deg

SMA: 7154.399 km

Apoapsis: 816.253 km

Periapsis: 736.275 km

RAAN: 95.1585 deg

Eccentricy: 0.0055894

Argument of periapsis: 359.8338 deg

Mean anomaly: 0.2815 deg

Mean motion: 14.34640348 rev/day

Mean motion (dot): 0.00004692 rev/day2

B* drag term: 0.0016479 1/REarth

Two-line elements (TLE)

Creation date: June 18, 2025, 3:19 a.m.

Reference frame: TEME

Reference center: EARTH

Epoch: June 17, 2025, 1:42 p.m. UTC

TLE line 0: 0 FENGYUN 1C DEB

TLE line 1: 1 30959U 99025BAZ 25168.57084692 .00004692 00000-0 16479-2 0 9994

TLE line 2: 2 30959 99.6869 95.1585 0055894 359.8338 0.2815 14.34640348578292

Live tracking on map

Real-time ground track for satellite FENGYUN 1C DEB.

In-orbit conjunctions

A list of the most updated potential collisions computed for object FENGYUN 1C DEB.

Target Orbit TCA Probability of collision Miss distance Type
THORAD AGENA D DEB LEO 2024-11-12 07:22:35 0.0008148679 330.0 (m) DEBRIS
CZ-6A DEB LEO 2024-10-07 04:32:17 0.0001041232 684.0 (m) DEBRIS
SJ-5 SSO 2024-06-05 08:20:58 0.0004105647 155.0 (m) PAYLOAD

Associated space launch

Chinese polar orbiting meteorological satellite

FENGYUN 1C DEB was lifted into orbit during the mission ‘Long March 4B | Feng Yun 1C’, on board a Long March 4B space rocket.

The launch took place on May 10, 1999, 1:33 a.m. from Launch Complex 7.

For more information about the launch, click the button.

Launch to space Long March 4B | Feng Yun 1C
Long March 4B | Feng Yun 1C

Agency: N/A

Status: Launch Successful

Launch date: May 10, 1999, 1:33 a.m. UTC

Rocket: Long March 4B

Launch pad: Launch Complex 7

Location: Taiyuan Satellite Launch Center, People's Republic of China

...

Latest news about this satellite

There are no fresh news available about this satellite. Check back as we update our databases every day.


Newsletter sign-up

Weekly statistics, charts and insights to help you stay on top of the space industry.